Simultaneous Nadir Overpasses (SNOs) Predictions

Prediction of SNOs between GOES-15 and METOP-B Satellite Orbit:

Table of predicted SNOs for the next 14.0 days since TLE Epoch: 7/26/2018
Index Date Time (GOES-15) GOES-15 Lat,Lon METOP-B Lat,Lon Distance(km) Time Diff (sec)
1 07/27/2018 06:15:34 0.09,-135.48 0.83,-132.26 366.80 80
2 07/28/2018 18:37:04 -0.05,-135.50 0.24,-136.81 148.99 80
3 07/29/2018 18:13:44 -0.09,-135.49 -0.93,-131.83 418.56 80
4 07/31/2018 06:35:23 0.05,-135.44 -0.14,-136.41 110.26 80
5 08/01/2018 06:12:02 0.08,-135.43 0.96,-131.41 457.05 80
6 08/02/2018 18:33:31 -0.04,-135.45 0.09,-135.97 59.51 80
7 08/05/2018 06:31:50 0.03,-135.37 -0.00,-135.57 22.66 80
8 08/07/2018 18:27:19 -0.02,-135.35 -0.05,-135.12 25.61 80




NCC Satellite Simultaneous Nadir Overpasses (SNOs) Prediction Service
